Location: Caltech
(34.1382°N, 118.1253°W)
Time: 23:26:55
(UTC-07:00)

Iridium 65 - Visible Passes

Search period start: 29 May 2015 00:00
Search period end: 08 June 2015 00:00
Orbit: 776 x 779 km, 86.4° (Epoch: 29 May)

Date Brightness Start Highest point End Pass type
(mag) Time Alt. Az. Time Alt. Az. Time Alt. Az.
30 May 8.2 21:17:47 10° SW 21:21:32 19° WNW 21:25:06 10° NW visible
31 May 7.2 20:42:57 10° SSW 20:47:45 36° W 20:52:31 10° NNW visible
02 Jun 8.5 21:19:31 10° WSW 21:21:54 13° WNW 21:23:57 10° NW visible
03 Jun 8.0 20:43:43 10° SW 20:48:00 24° W 20:52:09 10° NNW visible
06 Jun 8.4 20:44:56 10° WSW 20:48:18 17° WNW 20:51:27 10° NW visible
